Date String (YYYY-MM-DD hh:mm:ss) UTC,Instrument flags,absolute air pressure of the measurement (hPa),sample flow rate (lpm),inlet stack bypass flow (lpm),air temperature of the measurement (°C),ambient temperature measured by the external sensor (°C),aerosol sample conditioner tube jacket temperature (°C),OPC LED temperature (°C),internal box temperature (°C),relative humidity of the measurement (%),span deviation,mass concentration of particles derived from Lorenz-Mie calculation of OPC scattering (μg/m³),mass concentration of particles derived from Lorenz-Mie calculation of OPC scattering (μg/m³),mass concentration of particles derived from Lorenz-Mie calculation of OPC scattering (μg/m³)
DateTimeUTC,F1_M11,P_M11,Q1_M11,Q2_M11,T1_M11,T2_M11,T3_M11,T4_M11,T5_M11,U1_M11,ZSPAN_M11,X0_M11,X2_M11,X1_M11
2023-12-21 04:00:00,SystemResetWarning,0830.0,5.00,000.00,024.8,023.7,000.0,033.2,026.3,12.6,0000.0,0007.79,0003.29,0002.61
2023-12-21 04:01:00,SystemResetWarning,0830.0,5.00,000.00,024.8,023.7,000.0,033.2,026.2,12.6,0000.0,0008.08,0003.27,0002.58
2023-12-21 04:02:00,SystemResetWarning,0830.0,5.01,000.00,024.8,023.7,000.0,033.2,026.2,12.7,0000.0,0008.14,0003.28,0002.57
2023-12-21 04:03:00,SystemResetWarning,0830.0,5.00,000.00,024.8,023.7,000.0,033.2,026.2,12.7,0000.0,0008.37,0003.27,0002.54
2023-12-21 04:04:00,SystemResetWarning,0830.0,4.98,000.00,024.8,023.7,000.0,033.2,026.2,12.6,0000.0,0008.21,0003.28,0002.53
2023-12-21 04:05:00,SystemResetWarning,0830.0,4.99,000.00,024.8,023.7,000.0,033.2,026.3,12.6,0000.0,0008.58,0003.28,0002.51
2023-12-21 04:06:00,SystemResetWarning,0830.0,5.01,000.00,024.8,023.7,000.0,033.2,026.2,12.7,0000.0,0008.90,0003.29,0002.49
2023-12-21 04:07:00,SystemResetWarning,0830.0,5.01,000.00,024.8,023.7,000.0,033.2,026.2,12.7,0000.0,0008.87,0003.27,0002.47
2023-12-21 04:08:00,SystemResetWarning,0830.0,5.00,000.00,024.8,023.7,000.0,033.2,026.2,12.7,0000.0,0008.94,0003.20,0002.43
2023-12-21 04:09:00,SystemResetWarning,0829.9,5.00,000.00,024.8,023.7,000.0,033.2,026.2,12.7,0000.0,0009.14,0003.22,0002.42
2023-12-21 04:10:00,SystemResetWarning,0830.0,4.99,000.00,024.8,023.7,000.0,033.2,026.2,12.7,0000.0,0009.12,0003.23,0002.39
2023-12-21 04:11:00,SystemResetWarning,0830.0,5.00,000.00,024.8,023.7,000.0,033.2,026.1,12.7,0000.0,0008.95,0003.20,0002.39
2023-12-21 04:12:00,SystemResetWarning,0830.0,4.99,000.00,024.8,023.7,000.0,033.2,026.2,12.8,0000.0,0008.49,0003.17,0002.39
2023-12-21 04:13:00,SystemResetWarning,0830.0,5.00,000.00,024.8,023.7,000.0,033.2,026.2,12.8,0000.0,0008.47,0003.11,0002.36
2023-12-21 04:14:00,SystemResetWarning,0830.0,5.01,000.00,024.8,023.7,000.0,033.2,026.1,12.8,0000.0,0008.81,0003.13,0002.35
2023-12-21 04:15:00,SystemResetWarning,0830.0,5.01,000.00,024.8,023.7,000.0,033.2,026.2,12.8,0000.0,0008.20,0003.13,0002.33
2023-12-21 04:16:00,SystemResetWarning,0829.9,5.01,000.00,024.8,023.7,000.0,033.1,026.1,12.8,0000.0,0007.70,0003.14,0002.32
2023-12-21 04:17:00,SystemResetWarning,0830.0,4.99,000.00,024.7,023.7,000.0,033.1,026.2,12.8,0000.0,0007.25,0003.11,0002.32
2023-12-21 04:18:00,SystemResetWarning,0830.0,5.00,000.00,024.7,023.7,000.0,033.1,026.2,12.8,0000.0,0007.25,0003.09,0002.30
2023-12-21 04:19:00,SystemResetWarning,0830.0,5.01,000.00,024.7,023.6,000.0,033.1,026.1,12.9,0000.0,0007.36,0003.11,0002.29
2023-12-21 04:20:00,SystemResetWarning,0830.0,5.01,000.00,024.7,023.6,000.0,033.1,026.1,12.9,0000.0,0007.45,0003.12,0002.29
2023-12-21 04:21:00,SystemResetWarning,0830.0,4.98,000.00,024.7,023.6,000.0,033.1,026.1,12.8,0000.0,0007.84,0003.10,0002.29
2023-12-21 04:22:00,SystemResetWarning,0830.0,5.00,000.00,024.7,023.6,000.0,033.1,026.0,12.8,0000.0,0008.06,0003.09,0002.26
2023-12-21 04:23:00,SystemResetWarning,0830.0,5.00,000.00,024.7,023.6,000.0,033.1,026.0,12.8,0000.0,0008.01,0003.05,0002.24
2023-12-21 04:24:00,SystemResetWarning,0830.0,5.01,000.00,024.7,023.6,000.0,033.1,026.0,12.9,0000.0,0008.22,0003.09,0002.25
2023-12-21 04:25:00,SystemResetWarning,0830.0,5.01,000.00,024.7,023.6,000.0,033.1,026.0,12.8,0000.0,0007.99,0003.06,0002.25
2023-12-21 04:26:00,SystemResetWarning,0830.0,5.00,000.00,024.7,023.6,000.0,033.1,026.0,12.9,0000.0,0007.75,0003.02,0002.24
2023-12-21 04:27:00,SystemResetWarning,0830.0,4.98,000.00,024.7,023.6,000.0,033.1,026.0,12.9,0000.0,0007.55,0002.94,0002.22
2023-12-21 04:28:00,SystemResetWarning,0830.0,5.00,000.00,024.7,023.6,000.0,033.1,026.0,12.9,0000.0,0007.52,0002.93,0002.22
2023-12-21 04:29:00,SystemResetWarning,0830.1,5.01,000.00,024.6,023.6,000.0,033.1,025.9,13.0,0000.0,0007.42,0002.93,0002.21
2023-12-21 04:30:00,SystemResetWarning,0830.0,5.01,000.00,024.6,023.6,000.0,033.1,025.9,13.0,0000.0,0007.31,0002.94,0002.22
2023-12-21 04:31:00,SystemResetWarning,0830.0,4.99,000.00,024.6,023.6,000.0,033.1,025.9,13.0,0000.0,0006.79,0002.89,0002.21
2023-12-21 04:32:00,SystemResetWarning,0830.0,5.00,000.00,024.6,023.6,000.0,033.0,026.0,13.0,0000.0,0006.65,0002.87,0002.19
2023-12-21 04:33:00,SystemResetWarning,0830.0,5.02,000.00,024.6,023.5,000.0,033.0,025.9,13.0,0000.0,0006.39,0002.87,0002.18
2023-12-21 04:34:00,SystemResetWarning,0830.0,5.00,000.00,024.6,023.5,000.0,033.0,025.9,12.9,0000.0,0006.80,0002.89,0002.16
2023-12-21 04:35:00,SystemResetWarning,0830.0,5.00,000.00,024.6,023.5,000.0,033.0,025.9,12.9,0000.0,0006.91,0002.86,0002.14
2023-12-21 04:36:00,SystemResetWarning,0830.0,5.00,000.00,024.6,023.5,000.0,033.0,025.9,12.9,0000.0,0006.56,0002.83,0002.12
2023-12-21 04:37:00,SystemResetWarning,0830.0,5.01,000.00,024.6,023.5,000.0,033.0,025.9,12.9,0000.0,0007.71,0002.82,0002.10
2023-12-21 04:38:00,SystemResetWarning,0830.0,5.00,000.00,024.6,023.5,000.0,033.0,025.9,13.0,0000.0,0007.74,0002.81,0002.09
2023-12-21 04:39:00,SystemResetWarning,0830.0,5.00,000.00,024.6,023.5,000.0,033.0,025.9,13.0,0000.0,0007.77,0002.77,0002.05
2023-12-21 04:40:00,SystemResetWarning,0830.0,5.01,000.00,024.5,023.5,000.0,033.0,025.9,13.0,0000.0,0008.61,0002.78,0002.02
2023-12-21 04:41:00,SystemResetWarning,0830.0,5.01,000.00,024.5,023.5,000.0,033.0,025.9,13.0,0000.0,0009.14,0002.71,0001.98
2023-12-21 04:42:00,SystemResetWarning,0830.0,5.01,000.00,024.5,023.5,000.0,033.0,025.9,13.0,0000.0,0009.78,0002.68,0001.94
2023-12-21 04:43:00,SystemResetWarning,0830.0,5.00,000.00,024.5,023.5,000.0,033.0,025.9,13.0,0000.0,0009.50,0002.64,0001.92
2023-12-21 04:44:00,SystemResetWarning,0830.0,5.00,000.00,024.5,023.5,000.0,033.0,025.9,13.0,0000.0,0009.78,0002.62,0001.91
2023-12-21 04:45:00,SystemResetWarning,0830.0,5.00,000.00,024.5,023.4,000.0,032.9,025.9,13.0,0000.0,0009.69,0002.61,0001.91
2023-12-21 04:46:00,SystemResetWarning,0830.0,4.99,000.00,024.5,023.4,000.0,032.9,025.9,13.1,0000.0,0009.54,0002.59,0001.89
2023-12-21 04:47:00,SystemResetWarning,0830.0,5.00,000.00,024.5,023.4,000.0,032.9,025.9,13.0,0000.0,0010.08,0002.53,0001.86
2023-12-21 04:48:00,SystemResetWarning,0830.1,4.99,000.00,024.5,023.4,000.0,032.9,025.9,13.0,0000.0,0009.32,0002.54,0001.86
2023-12-21 04:49:00,SystemResetWarning,0830.0,5.01,000.00,024.5,023.4,000.0,032.9,025.8,13.0,0000.0,0009.32,0002.54,0001.85
2023-12-21 04:50:00,SystemResetWarning,0830.0,5.00,000.00,024.5,023.4,000.0,032.9,025.9,13.0,0000.0,0009.29,0002.52,0001.84
2023-12-21 04:51:00,SystemResetWarning,0830.0,5.01,000.00,024.5,023.4,000.0,032.9,025.9,13.0,0000.0,0008.79,0002.50,0001.84
2023-12-21 04:52:00,SystemResetWarning,0830.0,5.01,000.00,024.5,023.4,000.0,032.9,025.9,13.0,0000.0,0008.03,0002.52,0001.85
2023-12-21 04:53:00,SystemResetWarning,0830.0,5.00,000.00,024.5,023.4,000.0,032.9,025.9,13.0,0000.0,0007.18,0002.51,0001.85
2023-12-21 04:54:00,SystemResetWarning,0830.0,5.00,000.00,024.5,023.4,000.0,032.9,025.9,13.1,0000.0,0006.97,0002.48,0001.86
2023-12-21 04:55:00,SystemResetWarning,0830.0,5.00,000.00,024.5,023.4,000.0,032.9,025.8,13.0,0000.0,0006.04,0002.40,0001.85
2023-12-21 04:56:00,SystemResetWarning,0830.1,4.99,000.00,024.5,023.4,000.0,032.9,025.9,13.1,0000.0,0006.05,0002.37,0001.84
2023-12-21 04:57:00,SystemResetWarning,0830.0,5.00,000.00,024.5,023.5,000.0,032.9,025.9,13.3,0000.0,0005.94,0002.36,0001.83
2023-12-21 04:58:00,SystemResetWarning,0830.0,4.99,000.00,024.5,023.5,000.0,032.9,025.9,13.2,0000.0,0004.99,0002.39,0001.82
2023-12-21 04:59:00,SystemResetWarning,0830.1,4.99,000.00,024.5,023.5,000.0,032.9,026.0,13.1,0000.0,0004.87,0002.39,0001.81
